Weather in Derzhavino

Russia / Orenburg Oblast     53°12′38″N   52°21′19″E
temp.,
°C
wind,
m/s
gust,
m/s
humid.,
%
clouds,
%
prec.,
mm/h
press.,
hPa
HPBL,
m
5 december, sun
sun523:00+4ssw71596100 4.4 10111008
02:00+2w4998100 4.3 1013539
05:000wsw3799100 8.7 1014547
08:00−1w2598100 3.1 1014326
11:00−2w2596100 3.3 1016196
14:00−2wnw2492100 0.0 1017336
17:00−4nnw1197100 0.0 101820
20:00−3nnw1196100 0.0 101924
6 december, mon
mon623:00−3nne1395100 0.1 1018142
02:00−3n1395100 0.0 1019130
05:00−6n22978 0.0 102022
08:00−7n239742 0.0 102256
11:00−6n249569 0.0 1024111
14:00−4n238713 0.0 1025244
17:00−6nne229545 0.0 102616
20:00−7ne119657 0.0 102817
7 december, tue
tue723:00−7ne1296100 0.0 102959
02:00−6ene1394100 0.0 103098
05:00−5ene2391100 0.0 1031170
08:00−7ene24945 0.0 103272
11:00−7e258949 0.0 1033152
14:00−5ese358329 0.0 1033223
17:00−7ese3788100 0.0 1033171
20:00−8ese3986100 0.0 1034188
8 december, wed
wed823:00−7ese4118148 0.0 1033231
02:00−7se4107895 0.0 1032206
05:00−7se41279100 0.0 1032230
08:00−4sse51287100 0.0 1030279
11:00−2sse51393100 0.0 1031367
14:00−1sse61492100 0.0 1030410
17:00−1sse61391100 0.0 1030354
20:00−2sse51391100 0.0 1030349
9 december, thu
thu923:00−2sse51391100 0.0 1030334
02:00−2sse51392100 0.0 1029300
05:00−3se51291100 0.0 1030290
08:00−3se51287100 0.0 1029293
11:00−2se61484100 0.0 1029345
14:00−1se61480100 0.0 1028394
17:00−2se61384100 0.0 1027335
20:00−3se61484100 0.0 1026328